This is the latest recevied weather packets stored in our database for station/object SP1BMW-13. If no packets are shown the sender has not sent any weather packets the latest 10 day(s).
| Time | Temp. | Humidity | Pressure | Rain* | Wind** | Luminosity | Snow |
|---|---|---|---|---|---|---|---|
| 1787924418 | 23.89° C | 56% | 1009.1 hPa | 0 mm | 1.79 m/s, 95° | 196 W/m² | - |
| 1787924358 | 23.89° C | 56% | 1009.1 hPa | 0 mm | 0.89 m/s, 47° | 200 W/m² | - |
| 1787924298 | 23.89° C | 56% | 1009 hPa | 0 mm | 0.89 m/s, 40° | 206 W/m² | - |
| 1787924238 | 23.89° C | 56% | 1009.1 hPa | 0 mm | 0.89 m/s, 74° | 210 W/m² | - |
| 1787924178 | 23.33° C | 55% | 1009.1 hPa | 0 mm | 1.34 m/s, 118° | 212 W/m² | - |
| 1787924118 | 23.33° C | 57% | 1009 hPa | 0 mm | 0.45 m/s, 8° | 214 W/m² | - |
| 1787924058 | 23.33° C | 57% | 1009 hPa | 0 mm | 0.89 m/s, 168° | 213 W/m² | - |
| 1787923998 | 23.33° C | 57% | 1008.9 hPa | 0 mm | 0.89 m/s, 21° | 210 W/m² | - |
| 1787923938 | 23.33° C | 57% | 1008.9 hPa | 0 mm | 2.24 m/s, 319° | 206 W/m² | - |
| 1787923878 | 23.33° C | 56% | 1008.9 hPa | 0 mm | 0.45 m/s, 46° | 197 W/m² | - |
| 1787923818 | 23.33° C | 57% | 1008.8 hPa | 0 mm | 1.34 m/s, 36° | 185 W/m² | - |
| 1787923759 | 23.33° C | 57% | 1008.8 hPa | 0 mm | 0.89 m/s, 41° | 176 W/m² | - |
| 1787923698 | 23.33° C | 57% | 1008.8 hPa | 0 mm | 0.45 m/s, 189° | 168 W/m² | - |
| 1787923638 | 23.33° C | 57% | 1008.8 hPa | 0 mm | 0.45 m/s, 162° | 161 W/m² | - |
| 1787923578 | 23.33° C | 56% | 1008.8 hPa | 0 mm | 1.79 m/s, 75° | 155 W/m² | - |
| 1787923518 | 23.33° C | 57% | 1008.9 hPa | 0 mm | 1.34 m/s, 36° | 149 W/m² | - |
| 1787923458 | 23.33° C | 56% | 1008.9 hPa | 0 mm | 1.34 m/s, 201° | 143 W/m² | - |
| 1787923398 | 23.33° C | 57% | 1008.8 hPa | 0 mm | 0.89 m/s, 85° | 136 W/m² | - |
| 1787923338 | 23.33° C | 56% | 1009 hPa | 0 mm | 2.68 m/s, 32° | 129 W/m² | - |
| 1787923278 | 23.33° C | 56% | 1008.9 hPa | 0 mm | 0.89 m/s, 53° | 123 W/m² | - |
| 1787923218 | 23.33° C | 57% | 1008.9 hPa | 0 mm | 0.89 m/s, 33° | 118 W/m² | - |
| 1787923158 | 23.33° C | 56% | 1008.9 hPa | 0 mm | 0.89 m/s, 66° | 110 W/m² | - |
| 1787923098 | 23.33° C | 57% | 1009 hPa | 0 mm | 0.45 m/s, 125° | 101 W/m² | - |
| 1787923038 | 23.33° C | 56% | 1009 hPa | 0 mm | 2.24 m/s, 134° | 94 W/m² | - |
| 1787922978 | 23.33° C | 55% | 1009 hPa | 0 mm | 1.34 m/s, 103° | 92 W/m² | - |
* Rain latest hour (hover to see other rain measurements)
** Current wind speed in m/s (hover to see current wind gust speed)